Saint Martins Green, United Kingdom

10:13 AM GMT on December 17, 2017 (GMT +0000)
Saint Martins Green

Weather History for 03809 - December, 2012

Change the Weather History Date:

Tuesday, December 4, 2012

  Actual Average Record
Temperature  
Mean Temperature 44 °F -  
Max Temperature 47 °F 47 °F - ()
Min Temperature 42 °F 40 °F - ()
Degree Days  
Heating Degree Days 20    
Moisture  
Dew Point 39 °F    
Average Humidity 79    
Maximum Humidity 93    
Minimum Humidity 66    
Precipitation  
Precipitation 0.03 in - - ()
Sea Level Pressure  
Sea Level Pressure 29.78 in    
Wind  
Wind Speed 16 mph ()    
Max Wind Speed 23 mph    
Max Gust Speed 40 mph    
Visibility 5.9 miles    
Events Rain    
T = Trace of Precipitation, MM = Missing Value Source: Averaged Metar Reports

Daily Weather History Graph

Daily Weather History Graph

Search for Another Location

Airport or City:

Trip Planner

Search our weather history database for the weather conditions in past years. The results will help you decide how hot, cold, wet, or windy it might be!

Date:

Astronomy

Dec. 04, 2012 Rise Set
Actual Time 8:02 AM GMT 4:20 PM GMT
Civil Twilight 7:24 AM GMT 4:57 PM GMT
Nautical Twilight 6:43 AM GMT 5:39 PM GMT
Astronomical Twilight 6:04 AM GMT 6:18 PM GMT
Moon 10:15 PM GMT (12/4) 11:30 AM GMT (12/4)
Length of Visible Light 9h 33m
Length of Day
8h 17m
Waning Gibbous, 71% of the Moon is Illuminated
Dec 4
Waning Gibbous
Dec 6
Last Quarter
Dec 13
New
Dec 20
First Quarter
Dec 28
Full

Hourly Weather History & Observations

Time (GMT) Temp. Windchill Dew Point Humidity Pressure Visibility Wind Dir Wind Speed Gust Speed Precip Events Conditions
12:50 AM 42.8 °F 34.8 °F 37.4 °F 81% 29.80 in 6.2 mi NW 17.3 mph 28.8 mph N/A   Partly Cloudy
1:50 AM 42.8 °F 35.8 °F 37.4 °F 81% 29.80 in 6.2 mi WNW 13.8 mph - N/A   Scattered Clouds
2:50 AM 43 °F - 39 °F 82% 29.83 in 6 mi NW 18.4 mph - - Rain Light Rain Showers
2:50 AM 42.8 °F 34.5 °F 39.2 °F 87% 29.80 in 6.2 mi NW 18.4 mph 32.2 mph N/A Rain Light Rain Showers
3:50 AM 44.6 °F 37.2 °F 37.4 °F 76% 29.83 in 6.2 mi NW 17.3 mph 28.8 mph N/A   Scattered Clouds
4:50 AM 44.6 °F 36.6 °F 39.2 °F 81% 29.83 in 6.2 mi NW 19.6 mph 32.2 mph N/A   Mostly Cloudy
5:50 AM 44 °F - 38 °F 72% 29.85 in 6 mi NW 19.6 mph - - Rain Light Rain Showers
5:50 AM 44.6 °F 36.6 °F 37.4 °F 76% 29.83 in 6.2 mi NW 19.6 mph 35.7 mph N/A Rain Light Rain Showers
6:50 AM 44.6 °F 37.8 °F 39.2 °F 81% 29.86 in 6.2 mi NW 15.0 mph 27.6 mph N/A Rain Light Rain Showers
7:50 AM 42.8 °F 35.4 °F 39.2 °F 87% 29.86 in 6.2 mi WNW 15.0 mph - N/A   Scattered Clouds
8:50 AM 42.8 °F 34.3 °F 35.6 °F 76% 29.86 in 6.2 mi WNW 19.6 mph 35.7 mph N/A Rain Light Rain Showers
9:50 AM 42.8 °F 35.4 °F 37.4 °F 81% 29.86 in 6.2 mi WNW 15.0 mph 28.8 mph N/A   Scattered Clouds
10:50 AM 42.8 °F 33.5 °F 35.6 °F 76% 29.83 in 6.2 mi NW 23.0 mph 40.3 mph N/A   Partly Cloudy
11:50 AM 46 °F - 38 °F 66% 29.84 in 9 mi WNW 19.6 mph - -   Partly Cloudy
11:50 AM 46.4 °F 39.0 °F 39.2 °F 76% 29.83 in 6.2 mi WNW 19.6 mph 31.1 mph N/A   Scattered Clouds
12:50 PM 44.6 °F 37.2 °F 39.2 °F 81% 29.80 in 6.2 mi NW 17.3 mph 29.9 mph N/A   Scattered Clouds
1:50 PM 46.4 °F 39.0 °F 37.4 °F 71% 29.80 in 6.2 mi WNW 19.6 mph 32.2 mph N/A   Scattered Clouds
2:50 PM 45 °F - 38 °F 68% 29.80 in 7 mi WNW 19.6 mph - - Rain Light Rain Showers
2:50 PM 44.6 °F 36.6 °F 37.4 °F 76% 29.77 in 6.2 mi WNW 19.6 mph 32.2 mph N/A   Haze
3:38 PM 44.6 °F 37.8 °F 39.2 °F 81% 29.77 in 5.0 mi WNW 15.0 mph 29.9 mph N/A Rain Light Rain Showers
3:50 PM 42.8 °F 35.8 °F 39.2 °F 87% 29.77 in 6.2 mi NW 13.8 mph - N/A   Scattered Clouds
4:50 PM 42.8 °F 35.1 °F 37.4 °F 81% 29.77 in 6.2 mi WNW 16.1 mph - N/A   Partly Cloudy
5:50 PM 44 °F - 38 °F 73% 29.76 in 9 mi WNW 15.0 mph - -   Partly Cloudy
5:50 PM 44.6 °F 37.8 °F 37.4 °F 76% 29.74 in 6.2 mi WNW 15.0 mph - N/A   Scattered Clouds
6:50 PM 44.6 °F 37.2 °F 39.2 °F 81% 29.71 in 6.2 mi WNW 17.3 mph 29.9 mph N/A   Scattered Clouds
7:50 PM 42.8 °F 35.1 °F 41.0 °F 93% 29.71 in 6.2 mi WNW 16.1 mph 27.6 mph N/A Rain Light Rain Showers
8:50 PM 44 °F - 41 °F 83% 29.70 in 2 mi WNW 16.1 mph - - Rain Heavy Rain Showers
8:50 PM 44.6 °F 37.4 °F 41.0 °F 87% 29.68 in 2.5 mi WNW 16.1 mph 27.6 mph N/A Rain Rain Showers
9:50 PM 44.6 °F 37.4 °F 39.2 °F 81% 29.68 in 6.2 mi WNW 16.1 mph 27.6 mph N/A Rain Light Rain Showers
10:50 PM 44.6 °F 36.4 °F 39.2 °F 81% 29.65 in 6.2 mi NW 20.7 mph 33.4 mph N/A Rain Light Rain Showers
11:50 PM 44 °F - 40 °F 79% 29.70 in 2 mi NW 23.0 mph - - Rain Heavy Rain Showers
11:50 PM 44.6 °F 35.9 °F 39.2 °F 81% 29.68 in 2.5 mi NW 23.0 mph - N/A Rain Rain Showers